Weather in Bychikha

Russia / Khabarovsk Krai     48°18′01″N   134°49′38″E
temp.,
°C
wind,
m/s
gust,
m/s
humid.,
%
clouds,
%
prec.,
mm/h
press.,
hPa
HPBL,
m
9 december, thu
thu901:00−11s22946 0.0 103121
04:00−12s229229 0.0 103016
07:00−12s229194 0.0 102918
10:00−9s22875 0.0 102837
13:00−4ssw25765 0.0 1027183
16:00−5s22865 0.0 102539
19:00−8s228826 0.0 102515
22:00−9s228968 0.0 102517
10 december, fri
fri1001:00−8s2291100 0.0 102421
04:00−7s2292100 0.0 102433
07:00−6ssw2294100 0.0 102339
10:00−4s2393100 0.0 102362
13:00−1s2389100 0.0 1022155
16:00−1ssw2293100 0.0 102268
19:00−4sw1197100 0.0 102212
22:00−4sw1198100 0.1 102215
11 december, sat
sat1101:00−4wnw1198100 0.9 102215
04:00−5nw1198100 1.2 102231
07:00−8wnw019975 0.3 102310
10:00−7sw119790 0.3 102445
13:00−5sw229397 0.1 1023222
16:00−6ssw2394100 0.3 1023193
19:00−9s2297100 0.1 102264
22:00−11s2293100 0.1 102133
12 december, sun
sun1201:00−11s2290100 0.0 101939
04:00−10s2298100 0.0 101746
07:00−11ssw2294100 0.0 101550
10:00−10ssw2487100 0.0 1014117
13:00−8sw3488100 0.1 1012321
16:00−9sw369498 0.3 1011519
19:00−13ssw359694 0.4 1011227
22:00−16ssw349896 0.6 101189
13 december, mon
mon1301:00−15ssw3597100 0.3 1009240
04:00−14sw379599 0.8 1009347
07:00−17sw359757 0.0 100997
10:00−18sw379641 0.1 1010181
13:00−14wsw598732 0.0 1009403
16:00−14wsw5109029 0.0 1010390
19:00−18sw35965 0.0 101287
22:00−20ssw34965 0.0 101453